User: anonymous   Login
Location: ??????
(55.6130°N, 37.7882°E)
Time: 03:21:49
(UTC+00:00)
Language:

Cosmos 921 Rocket - Orbit

View from above orbital plane
View from above orbital plane
View from above satellite
View from above satellite

Ground track
Ground track

The orbit data is extracted from the following two-line orbital elements,

1 10096U 77055B   24164.92812842  .00000966  00000-0  99796-4 0  9998
2 10096  75.8321 142.7828 0041460 182.6728 177.4250 14.90348917541951
Epoch (UTC): 12 June 2024 22:16:30
Eccentricity: 0.0041460
inclination: 75.8321°
perigee height: 568 km
apogee height: 626 km
right ascension of ascending node: 142.7828°
argument of perigee: 182.6728°
revolutions per day: 14.90348917
mean anomaly at epoch: 177.4250°
orbit number at epoch: 54195

The dashed part of the orbit path shows where the satellite is in the earth's shadow,  

DLR